[[{"header":{"parameterUnit":"m.s-1","parameterCategory":1,"la1":30.2991,"la2":30.254,"lo1":-89.0895,"lo2":-89.0444,"dy":0.0017,"dx":0.0017,"nx":28,"ny":28,"refTime":"2024-08-31T09:00:00:Z","depth":0,"parameterNumber":2,"parameterNumberName":"U-component_of_WINDS"},"data":[0,0,0,0,0,0,0,0,0,0,0,0,0,0,0,0,0,0,0,0,0,0,0,0,0,0,0,0,0,0,0,0,0,0,0,0,0,0,0,0,0,0,0,0,0,0,0,0,0,0,0,0,0,0,0,0,0,0,-3.4087,-3.4086,0,-3.408,-3.408,-3.408,-3.3998,-3.3996,-3.3994,-3.3992,-3.3988,-3.399,-3.3991,0,0,0,0,0,0,0,0,0,0,0,0,0,-3.4032,-3.4034,-3.4087,-3.4086,-3.4086,-3.408,-3.408,-3.408,-3.3998,-3.3996,-3.3993,-3.3991,-3.3987,-3.3989,-3.3992,0,0,0,0,0,0,0,0,0,0,0,0,0,-3.4044,-3.4034,-3.4087,-3.4045,-3.4041,-3.408,-3.408,-3.408,-3.3999,-3.3996,-3.3993,-3.399,-3.3987,-3.3989,-3.3992,-3.4071,0,0,-3.4,-3.4001,0,0,0,0,0,0,0,0,-3.4043,-3.4046,-3.4051,-3.4048,-3.4044,-3.4037,-3.4059,-3.4077,-3.4,-3.4015,-3.3992,-3.3988,-3.4007,-3.4008,-3.4013,-3.4071,-3.4071,-3.4001,-3.4002,-3.4003,-3.4004,0,0,0,0,0,0,0,-3.4043,-3.4046,-3.4084,-3.4051,-3.4047,-3.4028,-3.4026,-3.4062,-3.4029,-3.4013,-3.4007,-3.4008,-3.4004,-3.4011,-3.4013,-3.4071,-3.4,-3.4003,-3.4005,-3.4006,-3.4196,-3.42,0,0,0,0,0,0,-3.4047,-3.4046,-3.4084,-3.4084,-3.4036,-3.4031,-3.4029,-3.4042,-3.4028,-3.4023,-3.401,-3.4004,-3.4008,-3.401,-3.4012,-3.4105,-3.4003,-3.4006,-3.4007,-3.4193,-3.4197,-3.4201,0,0,0,0,0,0,-3.4046,-3.4051,-3.4084,-3.4063,-3.4066,-3.4036,-3.4051,-3.4044,-3.405,-3.4026,-3.4019,-3.4023,-3.4005,-3.4008,-3.4058,-3.4104,-3.4007,-3.401,-3.4189,-3.4194,-3.4199,-3.4292,0,0,0,0,0,0,-3.4045,-3.4051,-3.408,-3.4064,-3.4067,-3.4129,-3.4053,-3.4046,-3.4055,-3.4046,-3.4036,-3.4031,-3.4003,-3.4054,-3.406,-3.4106,-3.4012,-3.4185,-3.4191,-3.4197,-3.4285,-3.43,-3.4313,0,0,0,0,0,-3.4043,-3.4106,-3.4082,-3.4087,-3.4102,-3.4132,-3.4133,-3.4099,-3.4059,-3.4088,-3.4073,-3.4032,-3.4099,-3.406,-3.4066,-3.4114,-3.4182,-3.4189,-3.4197,-3.4278,-3.4297,-3.4312,0,0,0,0,0,0,-3.4128,-3.4103,-3.4076,-3.4135,-3.4136,-3.4118,-3.4153,-3.4119,-3.4132,-3.4123,-3.4081,-3.408,-3.4136,-3.413,-3.4087,-3.4191,-3.4133,-3.4142,-3.4193,-3.421,-3.4224,-3.4224,-3.4014,0,0,0,0,0,-3.4154,-3.4179,-3.4156,-3.4211,-3.4213,-3.4184,-3.4195,-3.4169,-3.4168,-3.4168,-3.4156,-3.4158,-3.418,-3.4195,-3.4213,-3.4284,-3.4282,-3.432,-3.4334,-3.4346,-3.4354,-3.4394,-3.4411,-3.4226,-3.4226,-3.4226,0,0,-3.4207,-3.4196,-3.4214,-3.4228,-3.4225,-3.4254,-3.4184,-3.4216,-3.4237,-3.4173,-3.4219,-3.4211,-3.4211,-3.4272,-3.4298,-3.4268,-3.4405,-3.4356,-3.4365,-3.4367,-3.4404,-3.4421,-3.4437,-3.4231,-3.423,-3.423,0,0,-3.4318,-3.4312,-3.4358,-3.4357,-3.4355,-3.4335,-3.4347,-3.4334,-3.4326,-3.4372,-3.4325,-3.4351,-3.4388,-3.439,-3.4396,-3.4513,-3.4476,-3.452,-3.4593,-3.4632,-3.4646,-3.4659,-3.4702,-3.4717,-3.4529,-3.4529,-3.4529,0,-3.4384,-3.4423,-3.4386,-3.4422,-3.443,-3.4374,-3.4421,-3.4423,-3.4427,-3.4435,-3.4402,-3.4449,-3.4445,-3.4507,-3.4536,-3.4542,-3.4555,-3.452,-3.4647,-3.4659,-3.4671,-3.4711,-3.4727,-3.4534,-3.4534,-3.4533,-3.4533,0,-3.4506,-3.4534,-3.4572,-3.4577,-3.459,-3.4631,-3.4602,-3.462,-3.4594,-3.4579,-3.4628,-3.4621,-3.4638,-3.4651,-3.4626,-3.4711,-3.4693,-3.4654,-3.4594,-3.4694,-3.4732,-3.4747,-3.4542,-3.454,-3.4539,-3.4537,0,0,-3.4666,-3.4653,-3.4668,-3.4671,-3.4665,-3.4687,-3.4728,-3.4745,-3.4761,-3.4767,-3.4801,-3.4836,-3.4801,-3.4808,-3.4783,-3.4818,-3.4912,-3.4775,-3.4774,-3.4801,-3.5008,-3.5037,-3.5055,-3.4889,-3.4891,-3.4894,-3.5008,0,-3.4774,-3.4841,-3.481,-3.4881,-3.4908,-3.4858,-3.4893,-3.4895,-3.4883,-3.4906,-3.4893,-3.4919,-3.487,-3.4875,-3.4906,-3.4894,-3.4953,-3.4885,-3.4921,-3.4923,-3.4922,-3.5074,-3.5104,-3.5212,-3.5022,-3.5025,-3.5026,0,-3.4907,-3.4919,-3.4993,-3.4985,-3.4996,-3.5028,-3.5042,-3.5064,-3.5067,-3.5056,-3.5066,-3.5034,-3.5075,-3.5018,-3.5075,-3.503,-3.5043,-3.504,-3.5043,-3.5045,-3.498,-3.508,-3.5245,-3.5262,-3.5049,-3.5047,-3.5045,0,-3.5018,-3.5053,-3.5102,-3.5106,-3.5098,-3.5123,-3.5121,-3.512,-3.5133,-3.5147,-3.5155,-3.5173,-3.5184,-3.5199,-3.5174,-3.5134,-3.5237,-3.5176,-3.523,-3.5231,-3.5252,-3.5251,-3.5423,-3.5262,-3.5262,-3.5261,-3.5261,0,-3.5141,-3.5188,-3.5152,-3.5182,-3.5235,-3.5201,-3.5254,-3.5247,-3.5248,-3.5277,-3.5235,-3.5264,-3.5229,-3.5255,-3.5237,-3.5288,-3.5293,-3.5287,-3.5281,-3.529,-3.5291,-3.5297,-3.5289,-3.5265,-3.5265,-3.5264,-3.5263,0,-3.5273,-3.525,-3.5301,-3.529,-3.5289,-3.5328,-3.532,-3.5349,-3.5335,-3.5373,-3.538,-3.5359,-3.5388,-3.5366,-3.5394,-3.5381,-3.545,-3.5434,-3.5449,-3.5444,-3.55,-3.5495,-3.5681,-3.5704,-3.5529,-3.553,-3.5532,0,-3.5352,-3.5387,-3.5381,-3.5398,-3.5399,-3.5426,-3.544,-3.5409,-3.5425,-3.5432,-3.5461,-3.5487,-3.5505,-3.5554,-3.5543,-3.5565,-3.5549,-3.5613,-3.5552,-3.5561,-3.5551,-3.5549,-3.5553,-3.5625,-3.5627,-3.5629,-3.563,0,-3.5496,-3.5484,-3.5504,-3.5522,-3.554,-3.5552,-3.5562,-3.5578,-3.5547,-3.5568,-3.5597,-3.5612,-3.5642,-3.5669,-3.5687,-3.5687,-3.5655,-3.565,-3.5663,-3.5673,-3.568,-3.5678,-3.5483,-3.5645,-3.5644,-3.5642,-3.5642,-3.5641,-3.5604,-3.5634,-3.5635,-3.566,-3.5665,-3.5675,-3.5702,-3.5693,-3.5717,-3.5738,-3.5719,-3.5755,-3.576,-3.5782,-3.5786,-3.5815,-3.5789,-3.5809,-3.5814,-3.5819,-3.5827,-3.5677,-3.5819,-3.5818,-3.5818,-3.5817,-3.5817,0,-3.5745,-3.5745,-3.5768,-3.5784,-3.5804,-3.5772,-3.5782,-3.5802,-3.5834,-3.5841,-3.5861,-3.5896,-3.5923,-3.5914,-3.5938,-3.5963,-3.5949,-3.5971,-3.5968,-3.5969,-3.5849,-3.5835,-3.5982,-3.5982,-3.5982,-3.5982,-3.5982,-3.5982,-3.5822,-3.5871,-3.586,-3.5913,-3.5912,-3.5946,-3.5955,-3.5966,-3.5971,-3.6012,-3.6034,-3.6029,-3.6031,-3.6055,-3.6079,-3.6076,-3.6087,-3.6115,-3.6107,-3.5994,-3.5977,-3.5962,-3.5948,-3.6117,-3.6117,-3.6225,-3.6226,-3.6226]},{"header":{"parameterUnit":"m.s-1","parameterCategory":1,"la1":30.2991,"la2":30.254,"lo1":-89.0895,"lo2":-89.0444,"dy":0.0017,"dx":0.0017,"nx":28,"ny":28,"refTime":"2024-08-31T09:00:00:Z","depth":0,"parameterNumber":3,"parameterNumberName":"V-component_of_WINDS"},"data":[0,0,0,0,0,0,0,0,0,0,0,0,0,0,0,0,0,0,0,0,0,0,0,0,0,0,0,0,0,0,0,0,0,0,0,0,0,0,0,0,0,0,0,0,0,0,0,0,0,0,0,0,0,0,0,0,0,0,1.8411,1.8412,0,1.845,1.845,1.8451,1.8543,1.8545,1.8547,1.8549,1.8584,1.8583,1.8583,0,0,0,0,0,0,0,0,0,0,0,0,0,1.8413,1.8413,1.8411,1.8412,1.8412,1.845,1.845,1.8451,1.8543,1.8545,1.8548,1.855,1.8585,1.8584,1.8582,0,0,0,0,0,0,0,0,0,0,0,0,0,1.8428,1.8413,1.8411,1.8463,1.8468,1.845,1.845,1.8451,1.8543,1.8546,1.8548,1.8551,1.8585,1.8584,1.8582,1.8516,0,0,1.8578,1.8578,0,0,0,0,0,0,0,0,1.8427,1.8428,1.8455,1.8459,1.8465,1.8495,1.8464,1.8473,1.8542,1.8514,1.8549,1.8553,1.8552,1.8553,1.8554,1.8517,1.8519,1.8578,1.8577,1.8577,1.8576,0,0,0,0,0,0,0,1.8426,1.8427,1.8426,1.8455,1.8461,1.8483,1.8488,1.8466,1.8516,1.8517,1.8524,1.8527,1.8555,1.8555,1.8556,1.8519,1.8578,1.8577,1.8576,1.8576,1.843,1.8428,0,0,0,0,0,0,1.8418,1.8425,1.8425,1.8428,1.8453,1.848,1.8486,1.8482,1.8517,1.8525,1.8525,1.8531,1.8556,1.8557,1.8557,1.8482,1.8577,1.8576,1.8575,1.8434,1.843,1.8427,0,0,0,0,0,0,1.8418,1.8417,1.8424,1.8428,1.8431,1.8477,1.8472,1.8481,1.8482,1.8523,1.8531,1.8516,1.8558,1.8559,1.8526,1.8484,1.8575,1.8574,1.8437,1.8432,1.8428,1.833,0,0,0,0,0,0,1.8418,1.8417,1.8393,1.8427,1.843,1.8392,1.8469,1.848,1.848,1.8489,1.8517,1.8524,1.8561,1.8527,1.8524,1.8484,1.8573,1.8441,1.8435,1.843,1.8337,1.8323,1.831,0,0,0,0,0,1.8417,1.8362,1.8391,1.839,1.8401,1.839,1.8391,1.8436,1.8476,1.8452,1.8478,1.8523,1.849,1.8523,1.8521,1.8479,1.8444,1.8437,1.843,1.8343,1.8326,1.8311,0,0,0,0,0,0,1.832,1.8368,1.84,1.8355,1.8368,1.8405,1.8376,1.8416,1.8417,1.8425,1.8479,1.8485,1.8444,1.8458,1.8495,1.8417,1.8474,1.8466,1.8409,1.8392,1.8379,1.8376,1.8572,0,0,0,0,0,1.8293,1.8281,1.8323,1.8279,1.8284,1.8329,1.8325,1.8359,1.8374,1.8379,1.8403,1.8415,1.8407,1.8401,1.8396,1.834,1.8347,1.8311,1.8297,1.8286,1.8278,1.825,1.8234,1.8404,1.8404,1.8404,0,0,1.8238,1.8262,1.8251,1.826,1.8274,1.8259,1.8333,1.8314,1.8303,1.8376,1.8347,1.8364,1.8381,1.8336,1.8318,1.8347,1.8233,1.8277,1.8268,1.8266,1.8241,1.8225,1.8211,1.8399,1.84,1.8401,0,0,1.8129,1.8147,1.8112,1.8125,1.8146,1.8177,1.8168,1.82,1.8215,1.8187,1.8242,1.8229,1.8215,1.8224,1.8227,1.8123,1.8164,1.812,1.8049,1.8021,1.8008,1.7996,1.7958,1.7944,1.8112,1.8112,1.8112,0,1.8057,1.8038,1.8089,1.8067,1.8069,1.8137,1.8102,1.8111,1.8129,1.8128,1.8161,1.8145,1.8161,1.812,1.8094,1.8095,1.8086,1.8117,1.8006,1.7994,1.7984,1.7949,1.7935,1.8107,1.8107,1.8108,1.8108,0,1.7948,1.7934,1.7904,1.7921,1.792,1.7891,1.7937,1.7929,1.7963,1.7989,1.7959,1.7981,1.7982,1.7975,1.8007,1.7938,1.7955,1.7996,1.8054,1.7962,1.793,1.7917,1.8099,1.8101,1.8102,1.8104,0,0,1.7778,1.7825,1.7813,1.7821,1.785,1.7839,1.7814,1.7816,1.7808,1.7818,1.7797,1.7784,1.7823,1.7826,1.786,1.7835,1.7751,1.7879,1.7881,1.7854,1.7676,1.7644,1.7628,1.7779,1.7777,1.7775,1.7674,0,1.7676,1.7636,1.7681,1.7631,1.7619,1.7683,1.7661,1.7675,1.7699,1.7691,1.7717,1.7707,1.7759,1.7761,1.774,1.7766,1.7716,1.7774,1.7759,1.7758,1.7752,1.7612,1.7578,1.7482,1.7662,1.766,1.7659,0,1.7551,1.7557,1.7505,1.7538,1.7535,1.7514,1.752,1.7512,1.7529,1.7548,1.7552,1.7594,1.757,1.7628,1.7595,1.7633,1.763,1.7642,1.7639,1.7639,1.7702,1.7607,1.7453,1.7438,1.7639,1.7641,1.7642,0,1.7431,1.7426,1.7395,1.7401,1.7438,1.7422,1.7436,1.7457,1.7456,1.7461,1.746,1.7461,1.7462,1.7462,1.7502,1.754,1.7464,1.7525,1.7479,1.7477,1.7459,1.7459,1.7301,1.7457,1.7458,1.7458,1.7458,0,1.7312,1.7278,1.7342,1.7323,1.7287,1.7339,1.7302,1.7323,1.7341,1.7326,1.7381,1.7366,1.7421,1.7411,1.7443,1.741,1.741,1.7424,1.7433,1.7419,1.7417,1.7417,1.7425,1.7454,1.7455,1.7456,1.7456,0,1.7172,1.7214,1.7184,1.7222,1.7231,1.7203,1.7235,1.7218,1.7247,1.7227,1.7225,1.7269,1.7261,1.7302,1.73,1.7321,1.7273,1.7293,1.7267,1.7273,1.7224,1.7228,1.706,1.7041,1.7209,1.7207,1.7206,0,1.7093,1.7068,1.7105,1.71,1.7112,1.7102,1.7102,1.7153,1.715,1.7168,1.7149,1.7145,1.7145,1.7128,1.7159,1.7158,1.7178,1.7119,1.7178,1.7165,1.7177,1.7177,1.7175,1.7107,1.7105,1.7103,1.7102,0,1.6947,1.697,1.6968,1.6973,1.6971,1.6977,1.6987,1.6979,1.7034,1.7028,1.7021,1.7021,1.702,1.7015,1.702,1.7034,1.7076,1.7083,1.7072,1.7057,1.7043,1.705,1.7233,1.7086,1.7088,1.7089,1.709,1.709,1.6835,1.6817,1.684,1.6836,1.6849,1.6857,1.6843,1.6871,1.6866,1.687,1.69,1.6887,1.6906,1.6918,1.6927,1.6917,1.6945,1.6929,1.6925,1.692,1.6911,1.7046,1.6918,1.6919,1.6919,1.692,1.692,0,1.6693,1.6711,1.6707,1.672,1.6716,1.6759,1.6772,1.6765,1.6754,1.6768,1.6768,1.6759,1.6755,1.6786,1.6786,1.6772,1.6791,1.677,1.6771,1.6774,1.6887,1.6896,1.6755,1.6755,1.6755,1.6755,1.6755,1.6755,1.6618,1.659,1.6615,1.6593,1.6611,1.66,1.6604,1.6611,1.6623,1.6612,1.6609,1.663,1.6651,1.6653,1.6651,1.666,1.6657,1.6629,1.6645,1.675,1.6766,1.6781,1.679,1.6628,1.6628,1.6533,1.6532,1.6531]}]]